Location: Chevoux
(46.3801°N, 4.9476°E)
Time: 03:26:21
(UTC+00:00)

N. Korean satellite - Visible Passes

Search period start: 16 April 2021 00:00
Search period end: 26 April 2021 00:00
Orbit: 452 x 499 km, 97.2° (Epoch: 15 April)

Date Brightness Start Highest point End Pass type
(mag) Time Alt. Az. Time Alt. Az. Time Alt. Az.
17 Apr 10.0 03:57:21 10° ENE 03:58:32 11° E 03:59:43 10° ESE visible
20 Apr 9.6 04:08:45 10° NE 04:10:58 15° E 04:13:09 10° SE visible
24 Apr 10.2 03:55:30 10° E 03:56:04 10° E 03:56:37 10° E visible
